TimeMST,TemperatureF,Dew PointF,Humidity,Sea Level PressureIn,VisibilityMPH,Wind Direction,Wind SpeedMPH,Gust SpeedMPH,PrecipitationIn,Events,Conditions,WindDirDegrees,DateUTC
12:53 AM,79.0,28.0,15,29.76,10.0,NNW,3.5,-,N/A,,Clear,330,2013-05-24 07:53:00
1:53 AM,75.9,27.0,16,29.78,10.0,Calm,Calm,-,N/A,,Clear,0,2013-05-24 08:53:00
2:53 AM,73.9,27.0,18,29.79,10.0,Calm,Calm,-,N/A,,Clear,0,2013-05-24 09:53:00
3:53 AM,72.0,28.0,20,29.80,10.0,Calm,Calm,-,N/A,,Clear,0,2013-05-24 10:53:00
4:53 AM,70.0,28.0,21,29.81,10.0,Calm,Calm,-,N/A,,Clear,0,2013-05-24 11:53:00
5:53 AM,68.0,33.1,27,29.83,10.0,Calm,Calm,-,N/A,,Clear,0,2013-05-24 12:53:00
6:53 AM,73.0,34.0,24,29.84,10.0,Calm,Calm,-,N/A,,Clear,0,2013-05-24 13:53:00
7:53 AM,79.0,30.0,17,29.85,10.0,Calm,Calm,-,N/A,,Clear,0,2013-05-24 14:53:00
8:53 AM,84.0,21.9,10,29.86,10.0,SE,5.8,-,N/A,,Clear,140,2013-05-24 15:53:00
9:53 AM,84.9,26.1,12,29.86,10.0,SSE,5.8,-,N/A,,Clear,150,2013-05-24 16:53:00
10:53 AM,87.1,32.0,14,29.85,10.0,South,6.9,-,N/A,,Clear,170,2013-05-24 17:53:00
11:53 AM,89.1,30.9,12,29.84,10.0,Variable,5.8,-,N/A,,Clear,0,2013-05-24 18:53:00
12:53 PM,91.9,27.0,10,29.82,10.0,SSE,9.2,-,N/A,,Clear,150,2013-05-24 19:53:00
1:53 PM,93.0,26.1,9,29.80,10.0,South,12.7,16.1,N/A,,Clear,170,2013-05-24 20:53:00
2:53 PM,95.0,26.1,9,29.78,10.0,Variable,3.5,-,N/A,,Clear,0,2013-05-24 21:53:00
3:53 PM,95.0,26.1,9,29.76,10.0,East,6.9,-,N/A,,Clear,100,2013-05-24 22:53:00
4:53 PM,96.1,28.0,9,29.75,10.0,West,8.1,-,N/A,,Clear,260,2013-05-24 23:53:00
5:53 PM,95.0,28.9,10,29.74,10.0,West,5.8,-,N/A,,Clear,270,2013-05-25 00:53:00
6:53 PM,91.9,24.1,9,29.75,10.0,WSW,10.4,-,N/A,,Clear,250,2013-05-25 01:53:00
7:53 PM,89.1,17.1,7,29.75,10.0,WSW,8.1,-,N/A,,Clear,250,2013-05-25 02:53:00
8:53 PM,87.1,17.1,8,29.77,10.0,West,3.5,-,N/A,,Clear,270,2013-05-25 03:53:00
9:53 PM,86.0,21.0,9,29.78,10.0,West,3.5,-,N/A,,Clear,280,2013-05-25 04:53:00
10:53 PM,82.9,23.0,11,29.79,10.0,Calm,Calm,-,N/A,,Clear,0,2013-05-25 05:53:00
11:53 PM,79.0,24.1,13,29.79,10.0,Calm,Calm,-,N/A,,Clear,0,2013-05-25 06:53:00